Regional Weather Roundup
Issued by NWS

Home | Current Version | Previous Version | Text Only | Print | Product List | Glossary Off
Versions: 1 2 3 4 5 6 7 8 9 10 11 12 13 14 15 16 17 18 19 20 21 22 23 24 25 26 27 28 29 30 31 32 33 34 35 36 37 38 39 40 41 42 43 44 45 46 47 48 49 50

000
ASUS43 KMKX 121320
RWRWI

WISCONSIN REGIONAL WEATHER ROUNDUP
NATIONAL WEATHER SERVICE MILWAUKEE/SULLIVAN WI
700 AM CST TUE DEC 12 2017

NOTE: "FAIR" INDICATES FEW OR NO CLOUDS BELOW 12,000 FEET WITH NO
SIGNIFICANT WEATHER AND/OR OBSTRUCTIONS TO VISIBILITY.

WIZ001-002-006>008-014>016-023>028-121400-
NORTHWEST WISCONSIN

CITY           SKY/WX    TMP DP  RH WIND       PRES   REMARKS
SUPERIOR ARPT  CLOUDY     3  -2  80 W5        30.20S WCI  -6
ASHLAND        PTCLDY     2  -2  83 CALM      30.15S
HAYWARD        PTCLDY     2  -3  80 CALM      30.13F
SIREN          CLOUDY     4   0  84 W6        30.18F WCI  -7
CUMBERLAND     PTCLDY     3   0  85 NW7       30.14F WCI  -9
RICE LAKE      PTCLDY     4   1  86 CALM      30.17S
CHETEK           N/A      3   0  87 MISG      30.16S
LADYSMITH      CLEAR      4  -1  81 NW7       30.13F WCI  -8
EAU CLAIRE     CLOUDY     2  -1  88 W3        30.17F
MENOMONIE      CLOUDY     6   2  85 W7        30.19S WCI  -6
NEW RICHMOND   CLOUDY     4  -1  81 NW6       30.19F WCI  -7
OSCEOLA        PTCLDY     3  -1  82 W3        30.23F
$$

WIZ003>005-009-010-017-018-121400-
NORTH CENTRAL WISCONSIN

CITY           SKY/WX    TMP DP  RH WIND       PRES   REMARKS
MANITOWISH WTR CLOUDY     7   4  86 NW10G18   30.01S FOG     WCI  -8
ARBOR VITAE    FLURRIES  11   7  81 NW8       30.00S WCI   0
WOODRUFF       FLURRIES  11   7  81 NW8       30.00S WCI   0
RHINELANDER    CLOUDY    10   4  76 W10       30.00S WCI  -4
EAGLE RIVER    FLURRIES  10   4  77 NW8       29.98S WCI  -3
LAND O LAKES   LGT SNOW  10   5  82 NW6       30.00R WCI   0
PHILLIPS       CLOUDY     6   1  79 NW3       30.06S
TOMAHAWK       CLOUDY     9   2  74 NW8       30.04S WCI  -3
MEDFORD        CLOUDY     7   1  78 NW8       30.06R WCI  -6
MERRILL        CLOUDY    11   2  67 NW8       30.06R WCI  -1
$$

WIZ029-030-035-036-043>047-121400-
CENTRAL WISCONSIN

CITY           SKY/WX    TMP DP  RH WIND       PRES   REMARKS
WAUSAU         CLOUDY    11   2  67 NW10G18   30.05R WCI  -3
MOSINEE        CLOUDY    10   3  72 NW14G21   30.07R WCI  -5
MARSHFIELD     MOCLDY     8   2  76 NW13      30.07R WCI  -8
STEVENS POINT  CLOUDY    10   1  66 NW9       30.08R WCI  -2
WAUPACA        CLOUDY    17   4  57 NW10G16   30.08S WCI   5
WAUTOMA        MOCLDY    12   2  64 NW6       30.10S WCI   3
WISC RAPIDS    CLOUDY    12   4  70 NW12      30.10S WCI  -2
CAMP DOUGLAS   MOCLDY    10   3  72 NW12      30.13R WCI  -4
$$

WIZ011>013-019>022-031-037>040-048>050-121400-
NORTHEAST WISCONSIN

CITY           SKY/WX    TMP DP  RH WIND       PRES   REMARKS
ANTIGO         CLOUDY    10   4  76 NW12G18   30.00S WCI  -4
SHAWANO        CLOUDY    17   3  54 N14G23    30.06R WCI   3
OCONTO         CLOUDY    14   2  60 N13G18    30.05S WCI  -1
STURGEON BAY   MOCLDY    12   1  61 NW28G35   30.02R WCI  -9
GREEN BAY      CLOUDY    16   4  59 NW14      30.06R WCI   2
MANITOWOC      CLOUDY    15   3  59 NW15G25   30.04R WCI   0
APPLETON       CLOUDY    16   3  57 NW13      30.03R WCI   2
CLINTONVILLE   CLOUDY    16   7  67 N8        30.06R WCI   5
OSHKOSH        CLOUDY    16   5  62 NW15      30.05S WCI   1
$$

WIZ032>034-041-042-053>061-121400-
SOUTHWEST WISCONSIN

CITY           SKY/WX    TMP DP  RH WIND       PRES   REMARKS
LA CROSSE      CLEAR     12   5  73 NW12      30.20R WCI  -2
SPARTA         CLEAR     10   4  77 NW7       30.17R WCI  -2
VIROQUA        CLEAR      9   5  85 NW9       30.11S WCI  -5
BOSCOBEL       CLEAR     14   4  64 NW5       30.18R WCI   6
PRAIRIE DU CHI PTCLDY    14   7  75 NW10      30.19S WCI   1
PLATTEVILLE    CLEAR     13   9  83 NW12      30.13S WCI   0
$$

WIZ056-057-062-063-064-067-068-121400-
SOUTH CENTRAL WISCONSIN

CITY           SKY/WX    TMP DP  RH WIND       PRES   REMARKS
REEDSBURG      CLOUDY    13   4  69 NW13G21   30.12S WCI  -2
BARABOO/DELLS  CLOUDY    13   4  66 NW10      30.11R WCI   0
LONE ROCK      PTCLDY    14   6  70 NW12      30.15S WCI   0
MINERAL POINT  PTCLDY    14  10  85 W9        30.10S WCI   2
MADISON        MOCLDY    13   5  70 NW5       30.10R WCI   5
MIDDLETON      PTCLDY    15   7  71 NW10      30.10R WCI   2
WATERTOWN      CLEAR     13   5  69 NW14      30.07S WCI  -2
MONROE         PTCLDY    14   7  73 NW9       30.09R WCI   2
JANESVILLE       N/A     18   9  68 NW12      30.09R WCI   5
$$

WIZ051-052-058>065-066-070>072-121400-
SOUTHEAST WISCONSIN

CITY           SKY/WX    TMP DP  RH WIND       PRES   REMARKS
MILWAUKEE      MOCLDY    19   5  54 NW13G29   30.04R WCI   6
WAUKESHA       PTCLDY    14   5  67 NW12G17   30.06R WCI   0
MILWAUKEE/TIMM CLOUDY    18   3  53 NW15      30.05R WCI   3
RACINE         CLOUDY    18   6  59 NW15G24   30.06R WCI   4
BURLINGTON     CLEAR     26  20  80 NW13G20   30.06S WCI  14
KENOSHA        CLEAR     17   6  62 NW9       30.05R WCI   6
FOND DU LAC    MOCLDY    16   4  59 NW16G23   30.05S WCI   1
SHEBOYGAN      CLOUDY    15   4  61 N10       30.04R WCI   2
WEST BEND      CLOUDY    18   7  62 NW13      30.03S WCI   4
JUNEAU         MOCLDY    12   3  65 NW8       30.07S WCI   1
$$

LSZ147-162-121400-
LAKE SUPERIOR

STATION/POSITION TIME  TEMP    WIND        PRES    WAVE
                       AIR SEA DIR/SP/G            HT/PER
                 (UTC) (F)     (DEG/KT/KT) (MB)    (FT/S)
DEVILS ISLAND    1300    9     290/ 13/ 16 1022.4F
SAXON HARBOR     1240   12                 1020.0S
$$

LMZ867-665-643>646-121400-
LAKE MICHIGAN

STATION/POSITION TIME  TEMP    WIND        PRES    WAVE
                       AIR SEA DIR/SP/G            HT/PER
                 (UTC) (F)     (DEG/KT/KT) (MB)    (FT/S)
NORTHPORT PIER   1240   17     320/ 28/ 37 1015.6R
KEWAUNEE LAKESHO 1300   14     350/ 10/ 19 1016.4
SHEBOYGAN LAKESH 1300   16     330/ 18/ 22 1018.3R
PORT WASHINGTON  1240   18     350/  8/ 16 1018.6R
MILWAUKEE LAKESH 1300   19     320/ 15/ 19   N/A
KENOSHA   LAKESH 1300   17     310/ 13/ 17 1017.6
$$

TC  - TEMPERATURE IN CELSIUS
VSB - VISIBILITY IN STATUTE MILES
WCI - WIND CHILL INDEX
HX  - HEAT INDEX




USA.gov is the U.S. government's official web portal to all federal, state and local government web resources and services.